CZ-4C R/B, 65816

Orbit data source: Space-Track

CZ-4C R/B, 65816 is space debris in SSO originally from a launch on Fri, 26 Sep 2025 UTC launched from the Jiuquan Satellite Launch Center, China (JSC). Debris objects in space refer to the collection of defunct objects orbiting the Earth. Examples of debris include non-operational satellites, rocket bodies, and fragments generated from explosions, collisions, or faulty payload assembly.

Loading next visibility...
Identifier
65816, 2025-219B
Orbit
SSO
Country
Flag of CNCN / PRC
Related business
Manufacturer
SAST
Mission
Spacecraft
Bus & Motor
CZ-4 STAGE 3, Unknown motor
Mass
~1,000 kg wet, ~1,000 kg dry
Launch date (UTC)
2025-09-26 (9 months ago)
Launch vehicle
Unknown
Launch site
Jiuquan Satellite Launch Center, China (JSC)
Object type
Payload
Rocket body
Debris
Shape & HBR
Cyl, 8.0 m
Radar Cross Section
14.536 m², Large (>1 m²)

Expand to show TLE details & history
Last TLE update: 10 hours ago

TLE from 10 hours ago
0 CZ-4C R/B
1 65816U 25219B   26171.43045029  .00000259  00000-0  69428-4 0  9998
2 65816  98.6680 126.2139 0119700 310.2522  48.8252 14.53118707 38728
Epoch: 2026-06-20T10:19Z
TLE epoch observation values (Epoch: 2026-06-20T10:19:50.905Z)
Latitude
0.00001°
Longitude
62.60661°
Altitude
663.112 km
Speed
7.555 km/s
True Right ascension
08h 24m 51s
True Declination
0° 00' 00"
Sunlit
Object was in daylight at epoch
Visualization orbit readout
Latitude
Unknown
Longitude
Unknown
Altitude
Unknown
Speed
Unknown
Apparent Right ascension
Unknown
Apparent Declination
Unknown
Sunlit
N/A
Visualization observer readout
Local Sidereal Time
07:13:04
Azimuth
Unknown
Elevation
Unknown
Doppler factor
Unknown
Orbital elements
Apogee altitude
797.469 km
Perigee altitude
627.716 km
Semi-major axis
7,090.73 km
Eccentricity
0.01197
Inclination
98.668°
RAAN
126.2139°
Arg. of periapsis
310.2522°
True anomaly
49.86787°
Mean anomaly
48.8252°
Eccentric anomaly
49.34551°
Mean motion
3.63502 °/min
Orbital period
99.04 mins
BSTAR
0.000069428
Loading maneuver chart data...
Computing Atmospheric mass density...
Loading historical data...
Loading historical data...
Loading historical data...
Loading historical data...
Loading historical data...
Loading historical data...
Loading historical data...
Other satellites on launch #219 in the year 2025 (2025-09-26 UTC)

Documentation

Showing up to 5 results
|